Wind_Speed
9 7 6 6 7 10 13 12 10 21 28 29 26 25 32 34 35 36 32 27 24 29 25 18 19 18 16 15 15 15 11 10 9 10 12 10 10 10 10 9 9 8 10 11 11
15 10 8 7 10 10 14 16 16 17 26 27 30 33 30 34 35 33 32 30 27 21 27 25 21 19 17 15 14 14 13 11 11 13 10 11 12 7 8 9 10 10 10 10 11
18 15 12 9 11 12 15 16 17 21 22 23 25 28 30 33 34 35 31 29 26 27 23 20 21 21 17 15 14 14 13 13 12 13 13 11 11 9 10 12 13 9 7 9 8
17 15 14 12 14 15 16 18 18 20 21 22 25 27 29 28 25 31 29 28 26 24 23 23 21 19 15 15 14 13 13 13 11 13 14 11 10 10 11 14 12 11 10 7 6
19 17 15 13 15 15 14 18 19 20 21 20 24 25 25 22 19 28 28 28 26 25 24 22 20 18 16 15 14 14 12 11 13 13 11 10 11 12 11 15 11 13 11 9 8
17 18 16 14 15 14 12 16 19 19 21 20 23 23 20 15 25 25 26 25 25 24 23 21 18 16 14 13 13 9 12 12 11 10 11 11 13 13 11 13 10 10 10 11 11
15 16 16 15 14 13 12 15 18 18 19 18 17 15 10 16 22 23 24 23 22 19 17 18 17 15 12 11 12 12 8 10 11 11 11 11 14 11 8 10 8 9 12 12 15
12 13 14 13 13 12 14 15 16 17 17 16 12 11 11 20 20 20 19 19 18 18 18 17 15 13 11 11 8 10 9 9 9 9 10 9 11 8 8 10 9 13 15 17 17
9 9 10 11 11 11 12 13 15 15 14 11 10 11 15 18 18 17 17 16 16 16 16 15 13 12 12 10 9 9 5 6 7 7 8 10 11 8 10 10 13 16 19 20 19
8 7 8 9 9 9 10 11 12 12 10 7 9 7 15 15 15 15 14 14 14 14 14 14 13 13 13 13 7 7 6 6 8 7 9 10 9 14 17 15 15 19 22 23 19
6 6 5 7 6 6 7 8 9 10 10 3 7 7 12 13 13 13 13 13 13 14 15 15 14 14 14 13 11 7 7 7 11 11 12 11 12 12 17 19 21 20 23 20 13
4 3 4 3 6 6 6 7 7 8 4 4 6 9 11 11 11 12 12 12 14 14 14 13 14 11 10 10 10 11 11 12 12 12 12 12 15 15 19 23 24 23 18 12 12
8 1 0 4 4 7 6 6 6 4 3 5 6 9 9 9 9 10 11 11 12 12 13 13 6 12 10 11 10 10 10 10 11 11 13 15 14 10 14 16 18 15 12 11 11
10 6 1 3 4 4 8 8 4 3 2 4 5 6 7 7 7 9 10 11 11 11 11 9 11 8 11 11 10 9 8 8 10 9 5 8 6 9 12 14 15 14 12 11 11
6 7 4 3 5 7 8 4 3 2 3 4 7 7 7 9 7 8 9 10 8 9 10 7 7 11 11 9 9 7 6 7 9 11 11 9 7 5 7 13 11 11 11 11 11
7 6 4 2 5 8 10 7 3 2 3 5 7 8 9 12 8 9 9 9 9 9 10 10 8 9 9 8 8 6 5 7 7 5 2 5 7 6 10 9 9 9 10 11 14
8 7 6 5 5 8 10 8 4 5 5 5 8 10 9 10 11 9 9 9 8 7 9 8 8 9 9 8 8 8 5 1 2 1 4 5 8 14 13 14 15 14 10 8 12
12 11 8 9 8 8 9 11 8 6 7 5 9 10 10 10 11 11 10 11 11 10 8 8 6 10 11 12 7 9 8 5 6 3 3 6 7 6 12 15 13 13 13 13 14
16 14 12 11 12 12 12 13 5 8 9 9 12 13 12 12 10 13 14 14 12 13 9 9 6 10 8 9 9 7 9 8 3 3 1 7 9 10 13 13 14 15 16 16 15
18 18 16 14 15 16 17 19 12 10 8 11 13 11 10 12 14 12 12 9 13 14 15 9 5 11 11 12 14 14 10 6 7 2 4 6 11 10 9 12 12 13 11 10 13
20 21 19 17 18 20 24 22 20 17 14 12 14 11 12 12 12 16 8 9 12 12 14 13 12 8 12 12 14 17 19 12 8 6 4 1 5 9 10 10 12 16 16 16 17
25 23 21 20 20 23 27 26 22 18 16 17 16 16 16 15 14 17 14 15 10 14 15 15 8 8 12 12 12 13 14 18 9 7 8 5 7 10 11 14 13 11 16 20 24
29 27 25 24 25 27 27 26 22 23 20 20 19 19 19 18 13 17 19 18 16 14 8 13 11 5 3 11 17 18 19 19 20 17 12 6 5 10 14 15 17 17 18 19 21
29 28 30 31 31 30 27 28 27 26 22 22 22 21 19 19 21 12 18 16 16 15 16 16 16 15 13 7 9 11 11 14 22 16 26 29 28 16 25 24 21 15 17 26 30
32 31 32 22 26 33 31 29 29 28 26 26 26 26 23 21 20 21 20 19 17 15 17 18 19 20 22 22 22 23 24 24 29 30 31 30 24 23 27 28 31 34 39 38 35
32 31 33 34 31 29 22 30 34 31 28 26 26 26 24 25 24 21 22 23 22 17 21 23 17 22 25 24 27 30 28 30 33 35 41 39 38 38 38 40 38 34 37 36 31
31 32 34 34 33 32 33 31 27 25 29 30 22 22 23 21 21 21 22 21 21 19 19 21 20 18 14 21 23 24 28 26 27 28 31 34 33 33 31 31 30 31 33 32 33
Wind_Direction
4 12 24 42 33 41 58 95 118 164 182 202 206 185 179 179 180 184 185 184 178 191 205 208 211 209 196 194 192 195 197 212 215 230 254 266 266 267 248 246 254 266 282 290 290
36 45 42 42 55 70 94 102 112 116 140 154 170 172 178 178 176 175 175 181 179 175 204 203 196 196 187 185 192 198 208 211 223 243 264 262 267 240 239 252 258 268 275 282 286
37 40 57 57 77 87 89 99 107 115 129 145 160 167 174 171 169 173 173 177 180 186 189 195 196 187 181 187 198 206 219 224 230 246 257 260 254 251 254 257 268 279 269 266 280
42 52 59 61 82 85 100 101 105 114 124 140 150 154 164 162 165 168 168 175 179 181 183 183 194 188 186 194 206 213 224 232 234 244 256 250 253 257 266 272 278 276 277 267 266
53 51 53 62 75 78 89 106 108 114 120 133 144 149 150 157 167 163 166 175 175 179 181 185 188 188 194 201 213 219 228 237 240 242 240 244 258 270 268 273 271 273 277 269 274
57 57 61 63 72 79 90 107 112 116 124 136 143 144 143 161 153 158 165 172 174 179 181 186 195 195 206 209 216 224 230 235 236 231 240 255 265 271 269 270 267 258 256 264 273
55 59 60 65 73 83 97 104 111 116 126 135 139 134 141 147 149 157 164 169 174 176 185 192 196 200 214 216 225 225 227 224 229 240 251 263 268 267 262 263 267 252 267 270 282
46 61 65 67 76 88 97 107 116 121 125 130 136 134 146 144 146 160 164 168 173 181 191 197 201 206 213 215 212 220 232 234 239 245 254 251 262 257 263 269 270 278 274 277 284
51 63 75 82 86 92 104 115 118 124 130 131 132 131 137 145 151 160 164 173 180 191 197 201 201 204 210 209 212 215 222 243 259 256 261 260 270 275 274 266 277 281 279 282 289
46 65 82 93 95 101 106 110 119 134 146 142 124 122 146 152 158 164 172 180 187 198 198 198 196 201 207 210 210 208 222 239 265 275 276 272 271 280 281 282 281 287 288 292 296
39 55 80 92 97 107 121 131 140 152 153 167 146 126 147 159 166 174 182 185 192 198 198 196 198 205 211 219 224 221 214 226 255 274 282 283 280 271 277 282 283 284 288 287 273
29 69 100 127 133 134 151 158 169 155 175 152 164 150 150 159 170 180 184 189 194 198 197 198 206 210 211 220 240 239 238 234 251 265 279 278 284 277 274 274 274 280 273 262 242
30 33 168 146 158 153 160 151 147 161 146 136 145 153 156 162 171 178 182 190 201 199 197 200 201 217 224 229 226 223 228 232 246 270 285 291 291 262 266 271 270 270 265 252 239
2 25 183 177 155 158 154 145 133 124 142 169 160 169 180 176 179 184 190 193 196 202 200 218 223 222 215 216 218 229 241 252 265 288 276 294 285 270 266 265 266 276 272 252 232
350 347 7 211 195 175 171 167 167 200 29 200 194 184 181 178 176 179 188 198 205 207 202 207 215 211 215 219 222 231 242 265 280 286 284 269 241 257 237 247 264 277 270 255 249
313 319 316 305 226 201 199 205 210 265 244 191 192 202 202 201 198 197 196 197 200 205 212 221 216 210 218 226 221 224 251 278 278 275 263 237 225 242 237 270 265 281 272 240 239
297 281 287 272 238 226 226 222 236 231 201 204 196 200 204 202 204 204 202 200 197 188 208 215 220 226 228 231 233 227 229 285 332 325 220 183 239 252 253 257 280 287 269 263 260
287 280 257 263 255 247 219 214 223 228 210 197 193 192 197 199 205 209 212 214 216 216 207 212 223 220 225 221 214 198 208 210 206 203 240 220 241 245 245 255 267 272 259 262 263
279 270 263 246 250 245 236 219 249 227 231 214 193 202 208 207 206 211 219 223 219 219 206 209 221 207 208 208 208 215 215 227 229 242 254 232 248 244 236 247 259 252 251 258 264
270 268 259 255 242 243 237 237 242 249 238 213 208 209 201 207 206 201 203 226 226 224 219 221 218 224 228 230 229 229 216 200 205 146 240 262 242 235 226 234 245 254 266 271 271
262 262 258 250 245 240 239 243 244 244 241 232 221 218 220 219 209 205 208 220 216 215 211 219 224 231 224 230 234 226 221 216 213 214 178 221 240 225 236 258 281 286 292 287 277
261 260 258 249 239 239 244 244 245 243 242 227 230 228 217 226 219 211 224 226 219 223 219 222 225 228 234 240 233 232 234 227 218 214 211 239 254 247 250 269 273 285 282 276 286
256 256 252 244 240 241 244 250 248 247 241 238 234 231 234 236 222 221 231 239 235 231 231 223 215 191 239 237 235 233 235 236 241 247 227 216 247 227 239 265 281 283 282 282 277
246 247 252 249 244 244 244 245 245 249 247 241 239 238 242 235 226 227 225 232 232 236 234 230 230 235 237 237 210 202 222 236 238 238 247 238 255 243 267 271 268 254 270 279 279
241 239 242 244 245 243 240 242 246 246 242 240 239 241 243 237 228 226 238 245 246 245 242 238 244 250 255 256 263 266 266 262 256 260 252 270 264 262 263 266 272 281 289 287 287
235 235 236 242 243 242 238 239 245 244 243 240 240 245 242 233 235 238 237 242 248 248 245 244 247 257 262 260 265 269 263 258 257 261 265 268 268 267 269 273 278 281 283 285 288
235 236 237 239 243 244 244 245 248 245 246 245 243 231 229 237 240 244 253 253 254 256 253 249 250 252 259 267 270 273 270 265 267 265 262 261 268 269 270 269 270 270 276 284 290
Height
3077 3074 3071 3069 3066 3063 3060 3059 3058 3059 3065 3072 3079 3085 3091 3097 3102 3109 3117 3128 3132 3140 3145 3148 3152 3155 3157 3159 3161 3163 3166 3166 3166 3167 3168 3169 3170 3170 3170 3170 3171 3171 3171 3172 3171
3079 3076 3073 3071 3069 3067 3065 3065 3064 3063 3067 3072 3079 3085 3092 3097 3103 3112 3120 3125 3130 3136 3142 3147 3150 3154 3156 3158 3160 3161 3163 3163 3164 3165 3167 3168 3168 3169 3169 3169 3169 3169 3169 3169 3169
3082 3079 3077 3074 3073 3071 3069 3069 3069 3070 3073 3077 3083 3088 3094 3099 3106 3112 3118 3125 3131 3139 3142 3147 3151 3152 3154 3156 3158 3159 3161 3162 3163 3164 3165 3166 3166 3167 3167 3166 3167 3167 3167 3167 3167
3086 3083 3081 3078 3077 3076 3075 3074 3075 3076 3079 3083 3088 3092 3097 3102 3111 3112 3118 3125 3131 3136 3141 3145 3148 3150 3152 3154 3155 3157 3158 3160 3162 3162 3163 3163 3164 3165 3164 3164 3164 3163 3163 3164 3164
3090 3088 3085 3084 3082 3081 3081 3080 3081 3083 3085 3089 3093 3097 3100 3105 3108 3112 3118 3126 3130 3135 3140 3143 3146 3147 3149 3152 3153 3154 3156 3158 3159 3160 3160 3161 3161 3162 3162 3160 3162 3161 3161 3161 3162
3094 3092 3091 3089 3087 3087 3087 3086 3087 3089 3091 3095 3097 3100 3103 3109 3109 3113 3120 3125 3130 3135 3138 3141 3144 3145 3148 3150 3152 3152 3153 3155 3156 3157 3158 3159 3158 3159 3159 3158 3159 3159 3159 3159 3159
3097 3096 3095 3094 3093 3092 3093 3091 3093 3095 3097 3100 3103 3104 3107 3110 3111 3116 3121 3126 3130 3134 3138 3141 3142 3145 3147 3148 3149 3150 3152 3152 3154 3155 3155 3156 3155 3156 3156 3155 3156 3156 3157 3157 3157
3100 3099 3099 3098 3097 3097 3096 3097 3099 3100 3102 3104 3105 3106 3109 3111 3114 3120 3123 3126 3130 3134 3137 3139 3142 3143 3146 3146 3147 3148 3150 3150 3150 3151 3152 3153 3153 3153 3153 3152 3153 3153 3153 3153 3153
3104 3103 3102 3101 3101 3101 3101 3101 3102 3104 3105 3107 3109 3109 3110 3113 3117 3121 3123 3127 3130 3134 3136 3138 3140 3142 3144 3144 3146 3146 3147 3147 3148 3148 3149 3150 3149 3150 3150 3150 3151 3150 3149 3148 3148
3106 3105 3105 3104 3104 3104 3104 3105 3105 3107 3109 3110 3110 3112 3113 3115 3118 3121 3124 3127 3130 3133 3135 3137 3138 3139 3140 3142 3143 3144 3144 3145 3145 3147 3146 3146 3147 3146 3146 3146 3147 3145 3144 3143 3144
3108 3107 3106 3105 3106 3106 3107 3108 3111 3112 3111 3111 3111 3111 3112 3116 3118 3121 3124 3126 3129 3131 3133 3134 3136 3137 3138 3140 3142 3142 3143 3144 3144 3144 3144 3143 3143 3143 3142 3141 3142 3141 3140 3140 3141
3109 3108 3107 3107 3107 3108 3109 3110 3111 3112 3111 3110 3111 3112 3113 3116 3118 3121 3123 3126 3128 3129 3131 3134 3133 3135 3136 3138 3139 3140 3141 3142 3141 3141 3142 3140 3140 3139 3137 3136 3137 3137 3137 3137 3137
3110 3109 3108 3107 3108 3108 3108 3109 3110 3110 3111 3111 3111 3112 3114 3117 3118 3120 3122 3124 3126 3128 3129 3130 3132 3133 3134 3136 3136 3137 3139 3139 3140 3139 3138 3136 3135 3133 3134 3134 3133 3132 3133 3134 3135
3111 3109 3109 3108 3109 3107 3108 3108 3109 3110 3110 3112 3112 3113 3114 3115 3118 3119 3120 3124 3125 3126 3127 3129 3130 3131 3132 3133 3135 3136 3137 3137 3137 3137 3137 3135 3134 3131 3131 3131 3129 3129 3130 3130 3133
3112 3111 3108 3107 3107 3107 3109 3108 3108 3109 3111 3112 3110 3111 3112 3116 3117 3118 3119 3121 3123 3124 3127 3127 3127 3129 3130 3131 3132 3134 3134 3134 3134 3133 3132 3132 3132 3126 3126 3126 3127 3127 3127 3129 3130
3110 3110 3109 3107 3107 3107 3106 3107 3108 3110 3106 3107 3108 3109 3111 3113 3115 3116 3118 3120 3121 3122 3123 3124 3126 3127 3128 3129 3129 3131 3132 3132 3131 3131 3130 3127 3129 3124 3122 3123 3124 3125 3125 3126 3127
3108 3107 3107 3107 3106 3106 3106 3107 3109 3105 3105 3105 3105 3107 3109 3111 3113 3114 3116 3117 3118 3120 3121 3122 3123 3124 3126 3127 3128 3128 3129 3130 3133 3131 3129 3126 3127 3120 3120 3119 3121 3121 3122 3123 3123
3104 3104 3103 3105 3104 3104 3104 3106 3104 3101 3101 3102 3103 3105 3106 3108 3110 3112 3113 3114 3115 3116 3118 3120 3122 3121 3122 3123 3125 3125 3127 3126 3131 3130 3125 3124 3120 3117 3116 3117 3117 3117 3118 3119 3120
3100 3099 3100 3099 3101 3101 3103 3102 3099 3098 3099 3099 3101 3102 3104 3106 3108 3108 3109 3110 3111 3113 3116 3116 3117 3117 3118 3120 3123 3123 3124 3124 3124 3124 3124 3119 3116 3116 3113 3113 3113 3113 3114 3116 3117
3095 3095 3095 3096 3096 3098 3098 3097 3096 3097 3097 3097 3098 3099 3100 3101 3104 3105 3106 3107 3108 3110 3111 3112 3114 3115 3116 3117 3118 3119 3121 3122 3122 3125 3123 3113 3112 3109 3110 3110 3109 3109 3112 3113 3113
3089 3089 3090 3090 3091 3092 3090 3091 3092 3093 3094 3096 3095 3096 3096 3097 3099 3100 3102 3103 3104 3105 3107 3109 3111 3113 3113 3112 3113 3115 3114 3116 3117 3117 3115 3118 3107 3106 3107 3107 3106 3106 3108 3109 3108
3082 3083 3083 3083 3086 3083 3082 3084 3087 3089 3090 3091 3092 3093 3094 3094 3096 3097 3098 3099 3100 3102 3103 3106 3107 3108 3109 3108 3109 3110 3110 3111 3112 3111 3110 3108 3105 3105 3103 3102 3102 3103 3102 3101 3102
3072 3075 3076 3077 3075 3076 3077 3078 3080 3082 3084 3086 3087 3088 3089 3091 3093 3093 3093 3095 3096 3098 3099 3101 3102 3104 3105 3106 3105 3104 3105 3106 3107 3107 3106 3107 3104 3101 3098 3098 3098 3098 3098 3097 3095
3065 3065 3067 3067 3068 3069 3071 3071 3073 3075 3077 3079 3080 3082 3084 3085 3086 3087 3089 3091 3092 3093 3095 3096 3096 3097 3097 3096 3097 3098 3099 3101 3102 3101 3096 3095 3097 3098 3094 3094 3095 3095 3095 3093 3089
3053 3054 3056 3056 3059 3061 3063 3064 3066 3069 3070 3070 3072 3075 3077 3078 3080 3082 3084 3085 3087 3088 3089 3090 3090 3091 3092 3093 3092 3092 3093 3094 3091 3092 3090 3090 3092 3094 3091 3088 3087 3087 3085 3082 3081
3042 3046 3048 3049 3052 3055 3054 3055 3057 3060 3063 3064 3065 3068 3070 3072 3072 3075 3076 3078 3080 3082 3083 3083 3083 3084 3085 3087 3086 3082 3084 3085 3085 3084 3080 3082 3083 3084 3083 3081 3080 3079 3074 3072 3071
3032 3035 3037 3040 3043 3045 3045 3049 3052 3053 3055 3056 3060 3060 3062 3065 3068 3069 3070 3072 3074 3076 3077 3078 3079 3079 3076 3079 3078 3073 3072 3074 3074 3074 3074 3072 3075 3074 3074 3074 3075 3071 3069 3068 3065